Regional Weather Roundup
Issued by NWS

Home | Current Version | Previous Version | Graphics & Text | Print | Product List | Glossary On
Versions: 1 2 3 4 5 6 7 8 9 10 11 12 13 14 15 16 17 18 19 20 21 22 23 24 25 26 27 28 29 30 31 32 33 34 35 36 37 38 39 40 41 42 43 44 45 46 47 48 49 50
000
ASUS43 KIND 292109
RWRIN

WEATHER ROUNDUP FOR INDIANA
NATIONAL WEATHER SERVICE INDIANAPOLIS IN
500 PM EDT SUN MAR 29 2015

NOTE: "FAIR" INDICATES FEW OR NO CLOUDS BELOW 12,000 FEET WITH NO
SIGNIFICANT WEATHER AND/OR OBSTRUCTIONS TO VISIBILITY.

* - STATION DOES NOT REPORT WEATHER SUCH AS PRECIPITATION OR FOG.

+ - STATION NOT QUALITY CONTROLLED BY THE NATIONAL WEATHER SERVICE.
    USE DATA WITH CAUTION...ESPECIALLY DEWPOINT AND RELATIVE
    HUMIDITY OBSERVATIONS.

INZ001>003-010>013-019-020-292200-
NORTHWEST INDIANA

CITY           SKY/WX    TMP DP  RH WIND       PRES   REMARKS
GARY /AIRPORT/ CLOUDY    41  27  56 SW13G30   29.86F
KNOX *+          N/A     36  18  48 S15       29.87F
LA PORTE +     CLOUDY    39  28  66 S16G24    29.87S
MICHIGAN CITY+ CLOUDY    36  23  60 S14G25    29.86F
MONTICELLO +   DRIZZLE   42  28  57 S18       29.89F
RENSSELAER +   CLOUDY    41  32  70 S17       29.90R
VALPARAISO     CLOUDY    37  28  70 S13       29.88F

$$

LMZ046-743>745-292200-
SOUTHERN LAKE MICHIGAN

STATION/POSITION TIME  TEMP WIND        PRES
                       AIR  DIR/SP/G
                 (UTC) (F)  (DEG/KT/KT) (MB)
BURNS HARBOR     2100   38  180/ 18/ 26 1011.2S
MICHIGAN CITY    2100   37  160/ 21/ 27   N/A

$$

INZ004-005-014>016-021>024-292200-
NORTH CENTRAL INDIANA

CITY           SKY/WX    TMP DP  RH WIND       PRES   REMARKS
ELKHART        DRIZZLE   37  21  52 S15G31    29.86F
GOSHEN         LGT RAIN  38  27  64 S17G25    29.85F
LOGANSPORT +   CLOUDY    41  30  65 S15       29.91F
PERU/GRISSOM   CLOUDY    43  27  52 S15       29.88F
ROCHESTER +    LGT RAIN  41  28  60 S13       29.89F
SOUTH BEND     CLOUDY    38  26  62 SW21G28   29.87F
WARSAW +       CLOUDY    37  28  70 S8G18     29.88F

$$

INZ006>009-017-018-025>027-292200-
NORTHEAST INDIANA

CITY           SKY/WX    TMP DP  RH WIND       PRES   REMARKS
ANGOLA *+      CLOUDY    37  25  60 S15       29.89F
AUBURN +       CLOUDY    41  23  48 S12G18    29.92R
FORT WAYNE     LGT RAIN  40  26  57 S17       29.93F
HUNTINGTON +   CLOUDY    40  20  44 S13G18    29.92F

$$

INZ028-029-035-036-043>045-051>053-292200-
WEST CENTRAL INDIANA

CITY           SKY/WX    TMP DP  RH WIND       PRES   REMARKS
CRAWFORDSVL +  CLOUDY    45  20  37 SW22G28   29.94F
GREENCASTLE +  CLOUDY    48  16  27 S14G21    29.95S
LAFAYETTE      LGT RAIN  44  26  49 S15G23    29.90F
TERRE HAUTE    CLOUDY    50  26  39 S20G29    29.96R

$$

INZ030>032-037>040-046>048-054>057-064-065-292200-
CENTRAL INDIANA

CITY           SKY/WX    TMP DP  RH WIND       PRES   REMARKS
CP ATTERBURY + PTSUNNY   52  18  25 S21G29    29.93F
COLUMBUS       PTSUNNY   50   7  17 S25       29.96F
FRANKFORT +    CLOUDY    45  27  50 S14G20    29.93F
GREENWOOD *+   CLOUDY    50  16  25 S14G21    29.97F
INDIANAPOLIS   CLOUDY    50  16  25 S16       29.94F
-EAGLE CREEK   CLOUDY    49  15  25 S15G24    29.94F
KOKOMO *+        N/A     43  28  56 S18       29.90F
MARION +       CLOUDY    42  20  41 S22G29    29.93F
MT COMFORT *+  PTSUNNY   46   7  19 S15G23    29.97R
SHELBYVILLE    PTSUNNY   50  22  33 S20G31    29.92F
ZIONSVILLE +   CLOUDY    46  17  31 S17G24    29.93F

$$

INZ033-034-041-042-049-050-058-059-292200-
EAST CENTRAL INDIANA

CITY           SKY/WX    TMP DP  RH WIND       PRES   REMARKS
MUNCIE         CLOUDY    44  16  32 S20G30    29.94F

$$

INZ060-061-067>069-081>083-085>088-292200-
SOUTHWEST INDIANA

CITY           SKY/WX    TMP DP  RH WIND       PRES   REMARKS
EVANSVILLE     SUNNY     60  29  30 S20G32    29.99F
HUNTINGBURG *+ PTSUNNY   57  27  30 S23G31    29.98F
WASHINGTON +   PTSUNNY   54  22  29 S23G29    29.97F

$$

INZ062-063-066-070>080-084-089>092-292200-
SOUTH CENTRAL AND SOUTHEAST INDIANA

CITY           SKY/WX    TMP DP  RH WIND       PRES   REMARKS
BEDFORD +      PTSUNNY   54  14  20 S13G18    29.95F
BLOOMINGTON    CLOUDY    51  21  30 SW17G24   29.95F
NORTH VERNON + CLOUDY    50  10  20 S14G23    30.01F
SEYMOUR +      CLOUDY    54  25  32 S15G25    29.97F

$$



USA.gov is the U.S. government's official web portal to all federal, state and local government web resources and services.